Date String (YYYY-MM-DD hh:mm:ss) UTC,Instrument flags,Ambient pressure (hPa),Sample flow (lpm),Bypass flow (lpm),Sample temperature (°C),Ambient temperature (°C),ASC tube jacket temperature (°C),LED temperature (°C),Box temperature (°C),Sample RH (%),Span deviation,Mass concentration (μg/m³),Mass concentration (μg/m³),Mass concentration (μg/m³)
DateTimeUTC,F1_M11,P_M11,Q1_M11,Q2_M11,T1_M11,T2_M11,T3_M11,T4_M11,T5_M11,U1_M11,ZSPAN_M11,X0_M11,X2_M11,X1_M11
2022-04-17 00:00:00,,0819.8,5.00,0.00,28.3,27.5,00.0,37.1,30.1,09.4,0003.5,0028.73,0011.03,0009.06
2022-04-17 00:01:00,,0819.8,5.00,0.00,28.3,27.5,00.0,37.1,30.1,09.5,0004.8,0027.13,0011.00,0009.04
2022-04-17 00:02:00,,0819.8,5.01,0.00,28.3,27.4,00.0,37.1,30.1,09.5,0003.1,0027.07,0011.02,0009.02
2022-04-17 00:03:00,,0819.8,4.99,0.00,28.3,27.5,00.0,37.1,30.1,09.6,0000.9,0027.99,0011.00,0009.00
2022-04-17 00:04:00,,0819.8,4.99,0.00,28.3,27.4,00.0,37.1,30.1,09.4,0001.0,0027.61,0010.98,0009.00
2022-04-17 00:05:00,,0819.7,5.01,0.00,28.3,27.4,00.0,37.1,30.1,09.5,0002.1,0028.32,0011.06,0009.06
2022-04-17 00:06:00,,0819.7,5.01,0.00,28.3,27.4,00.0,37.1,30.1,09.5,0003.2,0028.96,0011.14,0009.10
2022-04-17 00:07:00,,0819.7,4.99,0.00,28.3,27.4,00.0,37.1,30.1,09.6,0003.4,0029.15,0011.20,0009.16
2022-04-17 00:08:00,,0819.7,5.01,0.00,28.3,27.5,00.0,37.1,30.1,09.6,0003.6,0029.20,0011.28,0009.23
2022-04-17 00:09:00,,0819.6,5.01,0.00,28.3,27.4,00.0,37.1,30.1,09.7,0003.6,0030.19,0011.35,0009.28
2022-04-17 00:10:00,,0819.5,4.99,0.00,28.3,27.4,00.0,37.1,30.1,09.6,0004.0,0029.86,0011.50,0009.33
2022-04-17 00:11:00,,0819.5,4.99,0.00,28.3,27.5,00.0,37.1,30.1,09.6,0004.2,0030.89,0011.52,0009.38
2022-04-17 00:12:00,,0819.6,5.00,0.00,28.3,27.5,00.0,37.1,30.1,09.7,0003.5,0032.85,0011.57,0009.43
2022-04-17 00:13:00,,0819.6,5.01,0.00,28.3,27.5,00.0,37.1,30.1,09.6,0004.0,0033.59,0011.61,0009.47
2022-04-17 00:14:00,,0819.6,5.00,0.00,28.3,27.4,00.0,37.1,30.1,09.7,0004.4,0033.75,0011.68,0009.53
2022-04-17 00:15:00,,0819.6,4.99,0.00,28.3,27.4,00.0,37.1,30.1,09.7,0004.3,0033.74,0011.75,0009.58
2022-04-17 00:16:00,,0819.5,5.02,0.00,28.3,27.4,00.0,37.1,30.1,09.6,0004.1,0032.81,0011.78,0009.58
2022-04-17 00:17:00,,0819.6,5.01,0.00,28.3,27.4,00.0,37.1,30.1,09.7,0003.6,0032.30,0011.80,0009.59
2022-04-17 00:18:00,,0819.6,4.99,0.00,28.3,27.4,00.0,37.1,30.1,09.7,0003.5,0033.14,0011.84,0009.59
2022-04-17 00:19:00,,0819.6,4.99,0.00,28.3,27.4,00.0,37.1,30.1,09.7,0002.8,0033.35,0011.81,0009.56
2022-04-17 00:20:00,,0819.7,5.00,0.00,28.3,27.4,00.0,37.1,30.1,09.7,0002.5,0032.25,0011.79,0009.56
2022-04-17 00:21:00,,0819.7,5.01,0.00,28.3,27.4,00.0,37.1,30.1,09.7,0001.7,0032.51,0011.74,0009.52
2022-04-17 00:22:00,,0819.8,5.00,0.00,28.3,27.4,00.0,37.1,30.1,09.7,0000.9,0031.99,0011.74,0009.49
2022-04-17 00:23:00,,0819.8,4.99,0.00,28.3,27.5,00.0,37.1,30.1,09.7,0001.0,0030.26,0011.72,0009.45
2022-04-17 00:24:00,,0819.8,5.01,0.00,28.3,27.5,00.0,37.1,30.1,09.6,0000.2,0029.13,0011.81,0009.44
2022-04-17 00:25:00,,0819.8,5.00,0.00,28.3,27.5,00.0,37.1,30.1,09.7,-000.6,0027.68,0011.76,0009.41
2022-04-17 00:26:00,,0819.7,5.00,0.00,28.3,27.5,00.0,37.2,30.1,09.7,-000.7,0027.94,0011.69,0009.34
2022-04-17 00:27:00,,0819.7,5.00,0.00,28.3,27.5,00.0,37.2,30.1,09.6,-000.4,0027.82,0011.60,0009.27
2022-04-17 00:28:00,,0819.7,5.01,0.00,28.3,27.4,00.0,37.2,30.1,09.6,0000.4,0028.97,0011.52,0009.22
2022-04-17 00:29:00,,0819.6,4.99,0.00,28.3,27.4,00.0,37.2,30.1,09.6,-000.1,0029.11,0011.43,0009.17
2022-04-17 00:30:00,,0819.7,5.00,0.00,28.3,27.5,00.0,37.2,30.1,09.7,0000.5,0028.98,0011.45,0009.12
2022-04-17 00:31:00,,0819.6,5.01,0.00,28.3,27.4,00.0,37.1,30.1,09.7,0001.2,0027.70,0011.42,0009.05
2022-04-17 00:32:00,,0819.7,5.00,0.00,28.3,27.5,00.0,37.2,30.1,09.7,0002.5,0027.34,0011.28,0008.97
2022-04-17 00:33:00,,0819.7,4.98,0.00,28.3,27.5,00.0,37.2,30.1,09.6,0002.6,0027.17,0011.17,0008.91
2022-04-17 00:34:00,,0819.6,5.01,0.00,28.3,27.5,00.0,37.2,30.1,09.6,0002.4,0027.54,0011.11,0008.88
2022-04-17 00:35:00,,0819.6,5.00,0.00,28.3,27.5,00.0,37.2,30.1,09.6,0003.2,0027.42,0010.94,0008.81
2022-04-17 00:36:00,,0819.5,4.99,0.00,28.3,27.5,00.0,37.2,30.1,09.5,0004.5,0027.23,0010.84,0008.74
2022-04-17 00:37:00,,0819.6,4.99,0.00,28.3,27.5,00.0,37.2,30.1,09.6,0004.5,0026.40,0010.81,0008.71
2022-04-17 00:38:00,,0819.5,5.02,0.00,28.3,27.5,00.0,37.2,30.1,09.7,0004.7,0026.73,0010.83,0008.67
2022-04-17 00:39:00,,0819.5,5.01,0.00,28.3,27.5,00.0,37.2,30.1,09.7,0004.7,0025.89,0010.73,0008.60
2022-04-17 00:40:00,,0819.5,5.00,0.00,28.3,27.5,00.0,37.2,30.1,09.6,0004.6,0024.80,0010.63,0008.55
2022-04-17 00:41:00,,0819.4,4.99,0.00,28.3,27.5,00.0,37.2,30.1,09.7,0004.6,0025.34,0010.55,0008.49
2022-04-17 00:42:00,,0819.4,5.00,0.00,28.3,27.5,00.0,37.2,30.1,09.6,0004.9,0026.22,0010.41,0008.44
2022-04-17 00:43:00,,0819.3,4.99,0.00,28.3,27.5,00.0,37.2,30.1,09.7,0002.8,0025.91,0010.34,0008.39
2022-04-17 00:44:00,,0819.2,5.01,0.00,28.3,27.5,00.0,37.2,30.1,09.8,0002.0,0025.30,0010.33,0008.34
2022-04-17 00:45:00,,0819.2,5.01,0.00,28.3,27.5,00.0,37.2,30.1,09.7,0002.7,0023.72,0010.27,0008.28
2022-04-17 00:46:00,,0819.2,5.00,0.00,28.3,27.5,00.0,37.2,30.2,09.7,0003.2,0024.08,0010.20,0008.23
2022-04-17 00:47:00,,0819.2,5.00,0.00,28.4,27.5,00.0,37.2,30.2,09.7,0002.5,0026.01,0010.17,0008.18
2022-04-17 00:48:00,,0819.2,4.99,0.00,28.3,27.5,00.0,37.2,30.1,09.6,0002.1,0025.88,0010.16,0008.11
2022-04-17 00:49:00,,0819.3,5.01,0.00,28.3,27.5,00.0,37.2,30.1,09.7,0002.4,0025.42,0010.07,0008.06
2022-04-17 00:50:00,,0819.2,5.01,0.00,28.3,27.5,00.0,37.2,30.1,09.7,0002.7,0025.87,0010.09,0008.03
2022-04-17 00:51:00,,0819.2,5.01,0.00,28.3,27.5,00.0,37.2,30.2,09.5,0002.9,0026.53,0010.09,0007.98
2022-04-17 00:52:00,,0819.2,5.00,0.00,28.4,27.5,00.0,37.2,30.2,09.4,0003.6,0026.00,0010.09,0007.95
2022-04-17 00:53:00,,0819.2,4.99,0.00,28.4,27.5,00.0,37.2,30.2,09.4,0003.5,0025.26,0010.12,0007.91
2022-04-17 00:54:00,,0819.2,5.00,0.00,28.4,27.5,00.0,37.2,30.2,09.4,0003.6,0026.64,0010.10,0007.90
2022-04-17 00:55:00,,0819.2,5.00,0.00,28.4,27.5,00.0,37.2,30.2,09.4,0003.1,0028.28,0010.11,0007.90
2022-04-17 00:56:00,,0819.3,5.00,0.00,28.4,27.5,00.0,37.2,30.2,09.3,0003.1,0029.22,0010.11,0007.86
2022-04-17 00:57:00,,0819.3,4.98,0.00,28.4,27.5,00.0,37.2,30.2,09.3,0003.0,0029.94,0010.14,0007.84
2022-04-17 00:58:00,,0819.2,5.00,0.00,28.4,27.5,00.0,37.2,30.2,09.3,0003.5,0029.53,0010.16,0007.83
2022-04-17 00:59:00,,0819.2,5.01,0.00,28.4,27.6,00.0,37.2,30.2,09.3,0003.3,0030.16,0010.15,0007.82
